Hourly Data Report for October 29, 2019

All times are specified in Local Standard Time (LST). Add 1 hour to adjust for Daylight Saving Time where and when it is observed.

EUREKA CLIMATE
NUNAVUT
Current Station Operator: ECCC - MSC

79°59'21.000" N
85°56'02.000" W
10.00 m
2401199
71613
NEK

Download Data

Hourly Data (October 2019)
Hourly Data Report for October 29, 2019
TIME Temp Definition
°C
Dew Point Definition
°C
Rel Hum Definition
%
Wind Dir Definition
10's deg

Wind Spd Definition
km/h
Visibility Definition
km
Stn Press Definition
kPa
Hmdx Definition


Wind Chill Definition


Weather Definition


00:00 -20.2 -21.9 86 1 5   103.21   -25 LegendNANA
01:00 -19.3 -20.9 87 10 3   103.19   -22 LegendNANA
02:00 -19.2 -20.8 87 2 2   103.18   -21 LegendNANA
03:00 -18.9 -20.4 88   0   103.15     LegendNANA
04:00 -18.8 -20.3 88 6 5   103.12   -23 LegendNANA
05:00 -18.7 -20.1 88 4 4   103.06   -22 LegendNANA
06:00 -18.7 -20.2 88 3 6   103.03   -24 LegendNANA
07:00 -18.8 -20.3 88 5 6   102.97   -24 LegendNANA
08:00 -18.8 -20.3 88 1 7   102.92   -24 LegendNANA
09:00 -19.2 -20.7 88 1 9   102.88   -26 LegendNANA
10:00 -19.4 -21.0 87 2 8   102.81   -26 LegendNANA
11:00 -19.6 -21.2 87 2 5   102.77   -24 LegendNANA
12:00 -19.9 -21.5 87 1 7   102.74   -26 LegendNANA
13:00 -20.9 -22.6 86 2 7   102.69   -27 LegendNANA
14:00 -20.9 -22.6 86 2 5   102.66   -25 LegendNANA
15:00 -20.7 -22.4 86 2 6   102.61   -26 LegendNANA
16:00 -20.0 -21.6 87 15 1   102.56   -21 LegendNANA
17:00 -20.6 -22.3 86 2 3   102.51   -23 LegendNANA
18:00 -20.7 -22.4 86 1 5   102.46   -25 LegendNANA
19:00 -20.5 -22.2 86 1 4   102.41   -24 LegendNANA
20:00 -20.8 -22.5 86 3 4   102.35   -24 LegendNANA
21:00 -20.6 -22.4 86 3 5   102.30   -25 LegendNANA
22:00 -20.4 -22.0 86 3 4   102.25   -24 LegendNANA
23:00 -19.8 -21.4 87 2 4   102.20   -23 LegendNANA

Notes on Data Quality.

Legend

  • E = Estimated
  • M = Missing
  • NA = Not Available
Date modified: